Theta_e
303 298 295 295 298 298 299 299 300 298 297 296 296 295 294 295 296 295 296 296 296 295 296 297 298 298 299 298 296 294 295 295 294 294 294 294 294 294 294 293 293 293 292 294 294 294 294 295 295 297 297 298 298 297 298 299 299 300 302 302 301 303 304 305 306 304 304 302 300 299 297 296 296 295 294 294 295 295 296 297 298 300 300 302 302 303
299 296 297 300 300 300 299 299 297 296 295 295 295 294 294 295 293 296 295 295 297 295 295 294 295 296 299 296 295 294 294 294 294 294 293 293 293 293 293 293 293 292 294 294 294 293 294 295 295 296 296 296 297 296 297 298 298 300 301 300 301 302 302 302 303 302 301 300 299 297 295 295 295 295 294 293 294 295 295 296 296 297 298 299 300 300
295 294 298 301 298 297 296 296 296 296 295 295 294 294 293 295 296 296 294 295 295 294 295 294 294 297 298 294 293 294 294 294 293 293 293 292 292 292 292 292 292 292 293 293 293 293 293 294 294 295 295 295 296 296 297 298 298 299 299 299 300 300 301 301 301 301 299 299 298 297 295 294 293 294 294 294 294 295 294 294 295 295 296 296 297 298
292 296 299 299 298 296 294 294 294 294 295 294 293 292 291 296 293 294 294 294 293 294 295 294 293 297 295 292 292 292 292 291 291 291 291 292 292 291 291 291 292 292 292 292 292 292 292 293 293 294 293 294 295 296 296 297 297 298 299 299 300 300 300 299 298 297 297 296 296 296 295 295 294 293 294 294 294 294 294 293 293 294 294 295 295 295
296 297 297 299 298 297 295 293 294 294 293 295 295 294 294 295 294 295 295 294 293 293 292 293 294 296 297 293 291 291 291 290 290 290 290 291 291 291 291 291 291 291 291 291 291 292 292 292 292 292 292 293 293 294 294 295 296 296 298 298 299 299 299 298 297 297 296 295 295 295 295 295 294 295 294 293 291 292 292 292 292 292 293 293 293 294
298 298 297 297 296 297 297 293 295 296 294 295 295 295 297 297 295 294 294 293 294 294 293 294 290 291 294 293 294 291 291 290 290 290 290 291 290 290 290 290 290 290 290 291 290 290 291 291 292 292 292 292 293 292 293 294 295 296 297 297 298 298 298 298 298 299 299 297 296 296 295 293 292 290 290 289 289 290 290 290 292 292 293 293 293 293
298 296 299 297 296 296 297 296 297 297 295 293 295 297 296 296 295 295 293 293 289 288 292 290 289 288 295 294 292 291 291 290 289 290 291 290 290 290 291 291 291 290 290 290 290 290 291 291 291 291 291 292 291 291 292 293 293 294 295 296 296 296 295 296 296 296 296 295 295 294 293 292 290 289 289 290 291 290 291 291 290 291 292 292 292 292
296 294 295 297 297 296 295 293 296 296 295 293 295 294 295 295 293 294 294 293 293 293 293 290 293 288 288 295 291 291 290 290 289 290 291 291 290 290 290 290 290 290 290 290 290 290 290 290 290 290 290 290 290 291 291 292 292 293 293 294 293 293 293 294 294 294 295 294 293 293 292 291 290 289 289 289 290 291 291 290 290 290 290 291 291 291
296 293 295 295 296 295 295 298 297 298 296 296 291 295 295 295 295 295 294 293 292 291 289 292 292 287 287 293 289 291 290 290 289 290 291 291 291 291 291 290 290 290 290 290 290 289 289 289 289 289 289 289 290 290 291 291 291 292 292 292 292 292 292 292 293 293 293 293 292 292 291 290 290 290 290 290 291 290 291 290 290 290 290 290 291 291
295 297 297 299 296 294 296 292 297 298 296 292 292 294 293 293 293 294 293 292 290 289 285 290 292 286 288 294 293 290 290 292 292 292 293 292 291 291 290 291 290 289 289 289 289 289 289 289 288 288 289 289 289 289 290 290 291 292 292 291 291 291 291 292 292 292 292 292 292 291 291 290 290 290 290 291 290 290 291 290 290 290 290 290 290 290
293 293 295 297 296 298 293 291 292 295 294 294 296 295 294 293 292 292 292 291 289 284 287 292 291 290 285 292 294 293 295 296 294 293 293 292 291 291 292 291 290 289 289 289 289 288 288 288 288 288 288 288 288 289 290 290 291 291 291 291 290 290 291 291 291 292 292 292 292 291 291 291 290 291 291 290 290 290 290 289 289 289 289 290 289 289
294 293 295 296 292 292 295 291 291 290 292 296 294 293 293 290 291 290 288 290 284 283 286 285 287 289 283 289 294 297 293 293 296 294 292 291 291 291 291 290 290 289 289 289 288 288 287 287 287 287 287 287 288 288 289 290 290 291 291 290 290 290 290 291 291 291 291 291 292 292 292 291 291 291 290 290 289 289 289 289 289 289 289 289 289 289
291 293 295 294 294 295 294 293 290 292 291 294 294 293 289 286 285 283 285 281 283 283 285 286 286 286 286 293 295 294 296 294 294 295 295 293 292 292 292 290 290 290 289 288 288 288 287 287 287 287 287 287 287 288 288 289 290 290 290 290 289 289 290 291 291 291 291 291 291 291 291 291 291 291 290 290 289 290 289 289 289 288 288 288 288 287
293 295 292 295 293 295 297 291 288 288 290 292 291 290 287 283 281 280 282 281 281 284 283 285 288 284 290 292 297 296 294 292 292 292 293 294 293 293 292 291 290 289 289 289 289 288 288 288 287 287 287 287 287 287 288 288 289 290 290 290 289 289 290 291 291 291 291 291 291 291 291 291 291 290 290 289 289 289 289 289 288 288 288 287 287 287
287 287 291 292 291 297 296 297 295 294 291 292 297 293 290 288 283 279 281 280 283 284 282 284 282 284 284 290 286 289 288 289 289 289 290 293 295 294 292 291 290 289 289 289 288 288 288 287 287 287 287 287 287 287 288 288 289 290 289 289 289 289 290 290 290 290 290 290 290 291 291 290 290 290 289 289 290 289 289 289 288 288 288 287 287 286
291 292 292 296 293 295 294 296 297 295 292 293 293 294 289 288 292 286 284 284 282 283 282 280 284 289 290 287 287 287 288 288 288 289 289 291 292 292 290 289 289 289 289 288 288 288 288 287 287 287 287 287 287 287 288 288 289 290 289 289 289 289 289 290 290 290 290 290 290 290 290 290 290 289 289 289 289 289 289 288 288 287 287 287 287 287
288 289 290 293 292 294 295 293 295 297 287 290 290 287 291 293 291 281 280 279 279 282 282 286 285 288 291 289 288 288 287 289 288 289 289 290 291 291 290 290 289 289 289 289 288 288 287 287 287 287 287 287 287 287 288 288 289 289 289 289 289 289 289 289 290 289 290 290 289 289 290 290 290 290 289 288 288 288 288 288 288 287 287 287 286 286
289 289 289 291 290 290 290 291 294 292 294 291 286 292 291 294 295 289 284 281 282 280 282 283 284 286 285 285 287 287 287 289 289 288 289 290 290 290 291 290 290 289 289 289 289 289 288 287 287 287 287 287 287 287 288 288 289 289 290 289 288 288 288 289 289 289 289 289 289 289 289 289 289 289 288 288 288 288 287 287 287 287 286 285 285 285
296 287 289 288 290 290 290 293 293 294 293 293 292 298 291 286 285 288 286 278 278 277 281 282 283 285 287 288 286 288 288 290 289 288 287 288 289 290 291 291 290 290 289 289 288 288 288 287 287 287 287 287 288 288 288 288 288 289 289 289 289 288 289 289 289 289 290 290 290 289 289 288 288 288 288 287 287 287 286 286 286 285 285 285 284 284
294 289 287 290 290 291 291 292 287 289 293 293 292 292 292 291 288 285 287 286 286 282 279 281 278 283 288 291 291 292 292 294 290 288 288 290 290 290 291 291 290 289 289 289 288 288 288 288 287 287 287 287 287 287 288 288 288 288 289 289 289 289 289 289 289 289 289 289 289 288 288 288 288 287 287 287 287 286 285 285 285 284 284 283 283 283
292 293 287 288 290 290 286 290 289 290 287 288 289 289 290 288 289 289 287 286 285 282 282 281 280 285 290 294 294 294 295 294 292 290 291 291 292 291 292 292 291 291 290 289 289 288 288 288 287 288 288 287 287 288 288 288 288 288 288 288 289 288 288 288 289 289 289 288 288 287 287 286 286 286 286 286 285 284 284 283 283 283 283 283 282 282
290 289 287 286 286 286 290 291 291 293 294 291 290 288 290 287 285 283 282 286 283 284 281 280 279 286 291 289 293 294 293 295 294 294 293 292 292 292 292 293 293 291 290 290 289 289 288 288 288 288 288 287 287 287 286 288 288 288 288 288 289 288 288 288 288 288 287 287 287 286 286 285 285 285 285 284 283 283 283 283 282 282 282 281 281 281
296 293 289 284 287 288 290 289 287 287 288 291 292 291 294 292 290 287 282 282 281 282 282 282 278 284 290 289 289 291 291 291 294 294 294 293 293 293 293 293 293 292 291 290 289 289 288 288 288 288 287 286 286 287 286 287 287 288 288 288 288 288 288 288 288 288 287 286 286 285 285 284 284 284 283 283 283 282 282 281 281 281 280 280 280 280
292 289 288 287 288 288 288 289 288 287 289 290 290 289 291 289 291 289 288 286 284 283 281 282 279 285 288 290 288 289 289 289 289 292 293 293 293 292 292 292 292 291 291 290 289 289 289 288 288 287 286 286 286 286 286 287 287 288 288 288 288 287 288 288 288 287 286 285 285 284 283 283 283 283 283 282 282 281 281 280 280 280 279 279 279 278
289 291 290 285 284 286 287 288 288 288 288 289 290 290 291 291 287 285 286 287 284 284 284 283 278 285 288 288 287 287 287 286 288 289 291 292 292 291 292 292 292 291 290 288 288 288 288 288 287 287 287 286 286 286 287 287 287 287 287 288 287 287 288 288 287 285 284 283 282 283 283 282 283 282 282 281 281 280 279 279 279 278 278 278 278 277
290 288 288 283 281 278 277 278 281 282 283 286 284 285 286 288 285 286 284 285 282 283 283 283 283 288 288 289 289 288 288 288 288 289 289 290 291 291 291 291 291 290 289 289 288 288 287 287 288 287 286 286 286 286 287 287 287 287 287 287 287 287 287 286 285 284 283 282 282 282 282 282 282 281 281 280 279 279 278 278 277 277 277 276 276 276
288 288 290 289 288 286 286 284 284 287 284 283 284 285 286 287 289 290 289 285 283 283 282 286 287 288 287 288 289 290 287 290 291 288 287 288 289 291 291 291 291 290 290 289 289 289 288 287 287 287 287 286 286 287 287 287 286 286 286 286 287 287 286 285 284 284 284 284 283 283 282 282 281 280 280 279 279 278 277 276 276 276 275 275 275 275
287 287 288 288 287 286 285 285 286 289 285 286 285 284 287 286 286 286 286 284 287 284 281 288 290 285 288 290 291 291 288 290 291 291 290 290 291 290 290 290 290 290 290 290 289 288 287 287 287 287 287 286 286 287 286 286 286 286 286 286 286 286 286 285 284 284 284 284 283 283 282 281 280 280 279 278 277 276 276 275 275 275 275 274 274 274
286 286 286 286 286 285 284 285 286 287 288 288 287 287 285 287 285 284 286 289 288 285 282 288 289 287 289 292 291 292 292 292 292 292 292 292 291 291 289 289 289 289 290 289 289 288 288 287 287 287 287 287 286 285 285 285 286 286 286 286 285 285 285 285 285 285 284 284 283 282 281 279 279 279 278 277 276 275 275 274 274 274 274 273 273 273
288 286 285 286 286 285 284 283 285 286 284 285 287 289 289 287 286 287 287 288 287 287 289 289 287 288 291 292 293 293 294 294 293 291 290 290 290 290 290 289 289 289 289 289 289 289 289 288 288 287 287 286 285 285 285 285 285 286 285 285 285 285 285 285 285 284 284 283 282 281 280 279 278 277 276 276 275 274 274 273 273 273 272 272 272 272
288 285 286 285 284 283 281 283 284 284 285 284 286 288 288 287 286 287 288 287 287 287 288 288 286 286 291 291 293 292 291 291 290 289 290 291 291 290 289 289 290 290 290 290 290 290 289 288 288 287 287 286 285 285 285 285 285 286 285 285 283 283 284 285 284 284 283 282 280 279 278 278 277 276 275 275 274 273 273 272 272 272 271 271 271 271
288 285 284 285 282 282 279 282 280 282 283 282 285 287 285 284 284 285 286 289 286 284 286 286 285 286 290 291 293 290 290 290 291 291 290 290 290 290 289 290 290 290 290 290 290 290 289 288 288 287 286 286 286 286 285 285 285 284 284 284 284 284 284 284 283 282 282 280 279 278 277 276 276 275 274 273 272 271 271 270 270 270 270 270 270 270
287 285 282 283 281 281 278 282 281 282 282 281 283 286 287 286 288 288 288 288 288 289 285 283 285 290 290 291 290 289 289 290 291 291 291 291 291 290 289 290 290 290 290 290 289 289 289 288 288 288 287 286 286 285 285 286 285 284 285 284 284 283 282 282 282 281 280 278 277 276 276 276 275 274 272 272 271 270 269 269 269 269 268 268 269 269
285 285 283 285 280 278 276 278 282 280 275 277 288 291 291 287 287 285 285 287 288 289 287 290 290 289 288 288 289 289 288 289 290 292 293 292 291 289 289 289 290 290 290 290 290 289 290 290 290 289 289 288 287 287 286 286 285 285 285 284 283 281 281 281 280 280 278 277 276 275 275 274 273 272 271 270 269 269 269 268 268 268 268 268 268 268
284 285 284 283 281 276 277 279 278 273 276 285 284 284 285 289 289 288 288 288 288 288 289 288 288 288 289 289 290 291 291 290 287 287 287 288 289 289 288 287 288 288 288 288 288 289 290 290 290 290 289 289 288 287 286 285 286 285 283 282 281 281 280 280 279 278 277 276 275 274 274 273 272 271 270 269 268 268 268 268 268 267 268 268 268 267
285 284 284 281 280 278 276 278 271 274 284 284 283 281 281 285 286 286 284 286 287 287 288 288 289 289 289 289 289 289 287 285 284 284 285 286 287 288 288 288 288 288 287 288 288 289 289 289 289 289 288 289 287 286 286 286 285 284 282 281 280 280 280 279 278 277 276 275 274 273 273 272 271 270 269 269 268 267 268 267 267 267 267 267 267 267
287 286 285 281 283 275 277 277 277 283 282 284 284 281 282 283 283 283 280 284 286 287 287 287 288 288 288 288 287 283 282 283 284 285 286 285 286 287 289 289 289 288 288 288 288 288 289 289 288 288 288 287 287 286 285 285 283 282 280 279 279 278 278 277 277 276 275 275 274 273 273 272 271 270 269 269 268 267 267 267 266 266 267 266 266 266
286 285 286 282 280 283 278 276 277 276 273 279 286 284 287 288 288 287 285 282 283 285 287 287 286 287 287 286 284 283 283 283 282 285 287 286 286 286 286 286 285 286 287 287 286 286 286 286 286 286 286 286 285 285 285 282 282 280 278 278 277 277 276 276 277 276 275 275 274 273 272 272 270 269 268 268 267 267 267 267 267 266 265 265 265 265
283 284 284 284 281 282 278 275 275 273 277 285 284 281 282 282 285 284 282 278 282 280 285 286 286 287 287 285 282 283 283 280 281 285 287 285 285 285 285 285 285 285 286 285 285 284 284 284 285 285 285 285 283 284 282 281 280 279 278 277 276 276 276 276 277 276 275 274 273 272 271 270 269 269 267 267 267 265 265 265 265 265 264 264 264 264
281 283 283 280 279 281 279 277 275 279 279 284 281 280 281 282 285 285 274 275 281 280 283 285 286 287 286 285 282 282 282 280 282 286 286 286 285 284 284 284 284 283 283 283 283 285 284 283 282 282 283 283 283 282 280 279 279 278 278 276 276 275 276 276 277 276 275 274 272 271 269 268 267 267 266 266 265 264 264 265 264 263 264 264 264 264
278 278 281 278 280 280 281 278 280 281 284 282 281 281 280 282 284 277 273 279 281 280 282 285 286 287 286 282 283 281 283 287 286 285 282 282 282 282 282 283 283 283 283 282 282 283 282 282 283 282 283 283 282 279 279 278 278 278 277 276 275 275 276 277 277 275 273 272 270 269 268 267 266 265 265 265 264 264 263 264 264 263 262 262 263 262
277 278 277 280 278 279 280 278 278 282 286 282 281 281 282 282 274 275 283 283 282 281 282 284 285 285 284 283 283 285 287 285 281 282 282 282 284 284 283 282 281 281 281 281 281 282 282 281 282 282 281 282 279 277 277 278 278 278 277 275 275 276 278 276 274 273 271 270 269 267 266 265 265 264 263 262 262 262 262 262 262 262 261 262 262 260
277 276 274 277 280 279 278 276 276 273 282 281 281 280 281 278 281 283 281 281 282 283 281 281 284 284 284 283 284 285 284 282 283 282 283 283 282 282 282 282 282 282 281 280 280 281 281 281 281 281 281 279 277 276 276 277 277 277 276 274 276 277 276 273 272 271 270 269 267 265 264 263 262 262 261 260 260 260 261 261 260 259 259 259 259 259
284 275 275 279 284 274 276 273 275 282 282 283 283 280 282 284 287 284 285 282 281 281 281 282 282 283 283 284 283 283 283 282 281 282 282 282 281 281 280 281 282 282 282 282 282 281 280 281 281 280 280 277 275 275 276 276 277 276 275 275 278 274 272 271 270 269 268 266 265 263 262 261 260 260 260 260 260 260 260 260 259 259 260 260 260 261
282 279 281 278 284 279 278 282 282 281 283 284 286 286 287 286 285 285 286 285 283 282 281 283 283 282 282 283 283 283 282 282 282 283 282 283 283 282 282 282 282 282 282 282 281 280 279 281 280 280 278 276 274 274 274 276 277 275 274 277 275 271 270 269 267 266 265 264 263 262 261 260 260 260 259 259 260 260 260 259 258 260 261 259 260 261
278 278 278 279 279 280 279 280 280 280 281 283 284 283 284 285 282 282 284 284 284 285 282 283 283 282 282 282 282 282 282 283 282 282 282 282 283 283 282 282 281 281 281 281 280 278 278 279 280 279 277 275 273 273 273 274 276 275 276 276 272 271 268 266 265 265 264 263 262 261 260 259 258 258 258 258 259 260 261 261 260 261 261 261 261 260
277 277 278 278 278 277 275 279 280 282 282 282 284 284 283 282 282 282 282 284 286 283 282 283 284 283 282 281 282 282 282 282 282 282 282 282 282 282 281 281 281 281 280 279 280 278 277 277 277 277 276 275 273 272 272 272 274 276 276 271 270 268 266 265 265 264 263 261 261 260 259 260 261 260 258 258 259 260 260 260 260 260 260 261 261 260
277 279 277 278 276 276 276 278 278 277 278 280 282 283 283 285 283 282 283 283 283 282 282 282 282 281 281 280 281 282 283 283 282 282 282 281 281 281 281 281 281 281 280 280 281 278 277 277 277 277 276 276 275 272 271 271 271 273 271 269 268 266 265 264 264 264 262 261 261 261 260 261 260 260 261 260 260 261 260 260 260 260 260 261 261 261
280 280 273 276 275 277 275 277 277 278 280 280 280 280 283 284 285 283 282 281 281 281 280 280 281 282 281 282 282 282 281 282 282 282 282 282 281 281 281 281 281 281 281 280 278 276 277 277 276 277 277 277 277 273 270 270 270 271 268 268 266 264 264 264 263 263 262 261 261 261 260 261 260 261 262 261 259 260 261 261 261 260 260 260 260 261
278 277 278 276 273 274 275 277 278 275 276 280 281 282 281 282 282 283 282 280 280 281 282 281 280 280 281 282 282 281 280 281 282 281 281 281 282 282 281 281 281 280 280 280 279 276 276 277 277 277 277 278 277 273 271 270 270 268 267 266 264 264 264 264 263 262 261 260 261 261 260 260 260 260 260 260 261 259 259 260 262 261 260 260 263 265
278 280 278 276 276 276 280 280 281 282 282 283 284 284 283 283 282 281 281 282 282 282 282 282 281 280 279 279 280 280 281 281 282 282 281 281 281 281 281 281 280 280 279 278 276 275 274 276 275 276 276 277 275 272 271 270 269 266 266 265 264 264 265 263 263 263 262 259 261 261 261 261 260 260 260 260 260 260 260 260 261 265 266 266 266 267
Wind_Speed
0 8 8 10 11 10 11 14 10 3 3 5 2 2 6 7 9 3 2 3 0 3 9 11 10 11 12 4 5 5 4 4 4 4 3 3 2 2 2 3 3 4 4 3 3 5 5 5 5 4 5 5 6 8 8 8 9 9 7 7 9 6 6 6 6 6 6 8 8 9 10 10 7 8 8 10 9 9 8 9 10 10 9 9 9 9
3 9 12 13 3 6 10 6 4 3 2 5 5 5 7 6 10 1 1 3 1 4 3 2 5 10 8 5 3 4 4 5 4 4 4 4 3 2 3 3 2 3 2 2 3 4 5 4 5 5 5 6 8 8 8 8 7 7 8 9 7 6 7 8 8 7 9 8 7 8 8 8 7 7 8 9 8 8 8 10 10 10 10 10 10 9
8 12 12 7 6 5 4 5 5 8 7 4 7 5 6 9 5 3 1 3 2 5 6 2 7 9 3 5 4 3 4 1 0 1 1 3 3 3 2 2 3 3 2 3 4 4 4 5 5 5 6 6 7 6 7 6 6 7 8 7 7 7 8 8 8 9 9 8 9 10 8 9 9 9 9 9 8 8 10 10 10 10 10 10 10 10
7 11 13 6 6 7 3 4 6 5 5 7 6 6 10 2 2 4 4 2 3 3 1 0 5 10 3 3 3 2 1 2 2 1 1 0 2 3 2 2 2 3 3 3 3 3 4 4 5 5 6 6 5 5 6 6 6 6 7 7 7 8 9 9 9 11 11 12 12 11 10 10 10 9 9 10 9 10 11 11 10 10 10 10 10 11
9 3 3 9 8 9 7 5 7 6 8 8 9 9 10 7 8 9 1 1 2 2 1 4 7 10 6 5 4 4 3 3 3 3 3 2 2 2 2 2 1 3 3 3 3 3 3 5 5 6 5 5 5 6 5 5 5 4 6 7 8 9 9 9 10 11 11 11 12 10 11 9 10 9 8 9 10 9 10 10 11 10 11 11 11 11
6 4 5 8 7 7 7 6 9 8 9 6 10 14 13 9 9 4 1 3 5 5 5 4 4 4 4 4 3 5 4 4 3 4 5 5 5 5 5 4 3 2 1 2 3 3 3 4 5 5 5 6 5 5 5 4 4 5 6 7 8 7 7 7 6 5 6 7 8 8 8 8 8 9 9 9 8 8 9 9 8 10 11 11 11 11
2 4 6 7 8 8 9 8 8 11 7 5 4 11 15 11 4 5 5 4 5 5 3 2 6 2 3 4 6 5 5 5 4 5 5 5 6 5 5 5 5 5 4 2 3 3 4 4 5 5 5 5 5 4 3 3 5 6 6 7 7 6 6 5 5 5 6 7 7 9 10 9 9 10 8 7 7 7 7 7 10 9 10 11 11 11
5 4 4 3 6 8 6 8 7 12 6 6 2 1 4 5 8 9 8 9 3 4 1 1 3 5 6 3 5 4 5 5 5 6 7 7 7 7 6 6 5 4 4 3 4 4 3 4 4 5 4 4 4 3 3 4 4 6 6 7 7 7 7 6 6 7 6 8 9 10 11 10 10 10 10 9 8 7 7 8 9 8 9 10 10 10
6 7 8 8 8 6 11 6 10 13 8 1 2 1 4 5 5 6 7 5 1 2 4 6 4 3 5 2 4 3 4 7 9 9 11 11 9 9 8 7 6 5 4 4 4 4 4 5 4 4 4 4 4 3 3 4 5 6 7 8 8 9 8 8 8 9 9 9 9 10 10 11 9 10 8 7 7 7 7 9 8 9 9 9 10 10
1 3 7 8 8 9 4 3 7 12 10 2 5 8 7 6 6 3 4 4 2 4 6 7 9 5 6 5 4 4 5 9 8 12 12 11 11 10 9 8 7 5 4 3 3 4 3 3 3 3 4 4 3 3 4 4 5 6 7 9 11 10 8 8 10 10 11 11 9 10 10 13 10 8 8 7 7 7 6 8 8 8 8 7 8 9
1 1 3 3 8 2 6 5 3 1 4 10 6 9 6 6 5 3 2 1 1 5 8 2 6 7 5 6 8 6 4 1 7 7 8 9 10 10 9 9 8 7 6 5 5 4 4 3 3 3 5 5 4 3 4 4 5 6 7 9 12 10 9 9 10 10 11 10 10 10 11 12 12 9 8 8 7 6 7 8 8 8 7 7 7 7
1 2 3 1 3 4 4 7 6 2 3 6 4 5 7 3 3 2 1 2 4 6 4 2 2 3 7 4 6 5 3 3 6 10 13 13 13 12 10 8 8 8 7 6 6 6 5 5 4 4 5 5 5 5 5 5 5 7 8 9 13 11 10 9 9 10 10 10 10 10 11 11 10 9 8 9 9 7 8 7 7 6 7 7 7 7
4 6 1 1 3 4 6 8 4 4 2 3 6 8 8 5 2 5 3 5 9 6 2 2 2 3 12 5 2 1 6 3 4 1 11 14 14 12 10 9 8 7 7 7 7 6 6 6 7 6 6 6 5 5 6 6 6 7 8 10 13 11 9 9 9 10 10 10 10 9 10 10 9 9 10 9 8 7 7 6 6 6 6 6 7 7
5 4 1 3 2 5 9 10 6 3 8 7 11 10 9 6 6 5 4 2 4 1 0 2 2 6 4 7 10 7 3 3 2 2 2 9 13 13 11 10 8 7 8 8 7 6 7 7 7 6 6 5 5 6 6 6 6 6 7 9 12 11 9 9 9 9 10 10 9 9 9 9 8 9 8 8 8 6 6 5 6 6 6 6 6 6
7 4 10 12 6 9 11 9 9 7 14 12 2 9 6 6 4 6 5 6 3 1 3 2 1 4 7 4 4 3 3 2 1 1 2 1 8 9 9 8 8 9 9 7 7 8 8 8 7 6 6 5 5 7 6 6 6 7 8 9 12 12 9 10 9 9 10 9 9 9 8 8 8 8 8 7 6 6 6 6 6 6 5 5 5 5
14 6 4 2 2 9 14 0 3 7 5 1 1 3 1 6 1 3 1 1 1 1 3 3 5 1 5 2 2 1 1 2 1 1 3 5 7 8 8 10 10 10 10 9 9 9 8 8 7 6 6 6 6 7 6 7 7 7 8 9 11 11 10 9 10 9 9 9 8 9 9 9 8 8 7 7 6 6 6 6 6 6 5 5 5 4
4 7 4 1 2 5 3 2 2 2 8 8 5 7 4 5 5 6 3 4 2 1 9 5 5 5 1 2 2 2 1 4 2 4 5 6 10 10 10 11 11 10 10 10 10 9 10 8 7 7 7 7 7 7 7 7 7 9 9 10 11 11 9 10 10 10 9 9 9 9 8 8 8 8 8 7 8 7 6 6 5 5 5 4 4 3
5 3 1 2 5 1 0 2 2 3 2 9 7 8 3 1 3 2 4 2 2 6 5 4 10 7 7 6 4 3 4 7 7 6 6 7 9 12 12 11 11 12 11 10 9 9 9 9 9 8 7 8 8 8 8 8 7 7 8 10 12 11 12 10 10 10 9 10 9 8 8 8 8 8 8 7 7 6 5 5 4 4 4 4 3 2
3 3 3 2 3 2 0 3 3 2 3 3 2 3 6 4 5 2 1 4 4 4 5 5 6 7 10 6 5 8 9 11 10 8 8 10 11 14 12 12 12 10 9 10 11 10 10 9 9 9 9 9 8 8 8 8 7 7 7 9 10 12 11 11 9 9 8 8 6 6 7 8 7 6 6 6 6 5 5 5 4 4 3 3 2 2
2 5 2 1 3 3 1 6 12 6 1 1 2 3 3 3 3 7 4 1 1 5 1 3 7 8 10 8 15 13 14 11 11 10 12 14 15 14 14 14 14 14 12 12 12 11 10 10 10 11 11 10 10 9 8 9 7 9 9 9 10 10 10 9 9 9 9 7 7 7 7 6 6 6 6 6 5 5 5 4 4 4 3 3 2 2
6 2 4 4 1 4 7 9 12 12 10 5 7 7 3 0 3 2 1 2 3 4 5 6 8 3 6 5 12 12 13 11 14 13 11 12 13 13 14 16 14 13 13 12 11 11 11 10 10 9 8 7 7 7 8 8 10 9 8 9 10 12 11 10 9 8 7 7 8 8 8 7 6 6 5 6 6 6 5 4 4 3 3 2 3 2
3 3 6 6 6 9 4 3 3 4 7 10 12 12 12 7 5 6 6 4 1 3 4 3 9 1 4 2 2 3 3 6 11 12 11 12 12 14 14 15 13 12 12 11 9 10 10 11 10 8 7 6 8 8 10 9 8 9 10 9 10 9 9 9 8 7 7 6 7 8 8 7 6 5 5 6 5 5 5 4 3 3 2 3 2 2
2 2 3 6 7 8 1 2 1 3 2 3 3 7 9 6 6 7 10 5 1 2 4 1 2 3 3 2 1 1 1 1 5 6 6 7 12 11 10 11 10 10 9 10 10 10 9 9 9 9 10 10 10 10 11 10 9 10 10 10 9 9 9 9 8 7 7 7 7 8 7 6 6 6 6 6 5 5 4 4 3 2 2 2 2 2
2 3 6 3 5 1 1 1 1 0 1 2 4 1 5 11 8 5 2 4 7 5 3 2 4 3 2 1 2 1 1 2 3 6 9 6 7 8 10 10 11 10 8 8 8 8 8 9 9 9 11 12 12 12 12 10 10 10 10 10 9 11 11 10 8 8 7 6 7 7 7 6 6 6 6 6 4 5 4 3 3 2 2 2 2 2
6 6 4 5 2 1 2 3 3 2 2 5 4 5 4 2 5 2 4 1 3 9 7 7 12 5 3 1 1 1 0 2 5 6 7 7 6 7 9 10 9 9 8 9 11 12 11 11 13 13 12 12 12 12 12 12 11 11 11 10 10 10 10 9 7 7 6 6 7 7 7 7 6 6 6 5 4 4 3 3 3 2 2 2 2 2
7 4 10 11 13 12 12 15 16 12 10 1 0 2 5 10 6 5 5 4 8 3 10 9 12 1 3 3 4 3 2 4 5 6 5 6 6 7 8 8 9 10 11 12 11 11 14 14 12 10 12 12 13 13 12 12 12 11 10 11 10 10 9 7 6 7 7 7 8 7 8 7 6 6 6 5 4 4 3 3 2 2 2 2 2 2
3 1 9 12 11 8 1 6 5 10 6 8 4 8 9 8 9 7 2 6 12 5 9 10 10 6 5 7 6 7 3 6 7 6 7 7 8 6 6 7 9 10 11 12 12 10 8 8 13 15 14 13 13 12 12 13 12 11 10 11 10 8 7 7 6 7 9 9 9 8 7 6 6 6 5 4 4 3 3 3 2 2 2 2 2 2
2 5 10 7 3 2 2 4 1 7 11 9 8 9 10 12 9 10 11 9 7 6 10 13 10 10 14 9 10 6 5 6 4 4 6 6 6 7 7 6 8 8 9 9 9 10 13 15 14 14 15 14 14 13 11 10 11 12 11 11 10 10 9 7 8 9 9 9 8 7 7 6 6 5 5 4 3 3 3 3 2 2 2 2 2 2
3 7 0 2 6 4 3 1 3 2 2 7 12 11 13 13 10 14 14 8 11 9 13 3 8 9 13 11 10 9 10 10 9 8 5 3 3 5 6 7 9 11 12 13 14 14 14 14 15 17 16 14 13 13 13 11 11 10 8 8 8 8 9 9 9 9 9 9 8 7 6 6 6 5 5 4 4 4 3 3 3 2 2 2 2 2
2 2 1 2 3 1 2 2 2 6 3 2 9 11 12 14 15 13 12 11 13 14 14 6 7 12 10 6 11 10 5 5 2 3 3 3 5 7 7 8 9 11 12 14 16 15 15 15 13 13 13 13 15 15 14 13 10 10 10 10 9 9 8 9 9 10 9 9 8 7 7 7 6 5 5 4 4 3 3 3 2 2 2 1 2 2
3 2 5 2 2 3 2 3 2 1 2 4 8 10 8 7 9 13 16 15 13 15 16 10 8 12 4 6 4 4 4 3 3 4 6 6 5 6 7 8 9 11 12 13 11 11 11 11 11 11 12 13 14 15 14 12 11 11 11 9 8 8 9 9 9 9 9 8 7 7 7 7 6 5 5 4 3 3 3 3 2 2 1 1 2 1
1 2 2 1 3 3 2 5 3 2 1 5 12 17 8 10 10 14 13 12 9 13 13 8 12 12 4 9 5 5 4 6 8 7 6 6 6 6 8 9 10 10 9 9 10 11 11 11 12 14 14 15 15 14 11 11 11 11 12 9 10 9 9 9 9 9 8 8 8 7 7 6 6 5 5 4 3 3 3 2 2 1 1 1 1 1
3 3 3 2 3 3 1 3 6 4 2 8 17 17 11 15 16 10 9 8 13 12 9 12 15 8 3 8 8 8 8 10 8 7 7 6 6 8 9 10 9 7 8 9 10 11 12 13 14 15 14 14 14 15 12 14 12 14 13 12 10 8 9 9 9 9 8 8 8 7 7 6 6 5 5 4 3 3 3 2 2 1 1 0 0 1
3 4 2 1 5 1 1 2 2 3 7 12 2 6 13 18 19 16 15 15 13 12 9 9 7 2 5 7 10 10 10 11 11 9 5 5 5 6 8 7 7 8 8 8 9 10 11 11 11 12 15 15 15 15 14 16 10 11 9 9 9 10 9 10 9 8 8 8 7 7 7 7 6 5 5 4 3 3 3 2 1 1 1 1 1 2
6 5 4 1 4 2 2 4 5 10 14 3 3 2 2 6 10 18 18 11 11 12 12 9 8 9 11 8 10 10 10 5 1 3 4 5 6 6 8 8 9 9 9 8 8 9 9 10 10 11 11 10 9 8 7 7 8 8 8 9 10 9 10 9 9 8 8 8 7 7 7 7 6 6 5 4 4 3 3 2 2 2 2 2 2 2
7 8 4 1 3 3 2 7 5 8 1 5 2 2 1 4 2 2 7 11 9 12 12 12 14 10 5 7 8 1 3 1 1 5 6 7 8 7 7 8 9 8 8 8 10 10 9 9 10 11 11 8 9 8 10 11 10 11 10 9 10 10 9 9 8 8 8 8 8 8 8 7 7 6 5 5 4 4 3 3 3 3 2 2 2 2
8 3 4 4 4 6 5 9 10 8 13 12 7 6 10 8 8 9 8 8 9 11 12 11 14 6 6 9 3 4 3 0 5 6 10 11 9 10 11 10 6 6 7 6 5 5 5 6 7 7 6 8 9 10 11 9 9 9 9 9 8 8 9 9 9 9 9 8 9 8 8 8 7 6 6 5 5 4 4 4 4 3 3 3 2 2
5 9 5 6 6 6 5 6 5 6 12 14 10 6 8 6 6 5 8 7 3 8 11 12 10 10 10 4 5 4 4 2 6 10 5 9 10 12 7 0 1 3 4 4 3 2 2 3 3 5 7 8 9 10 8 9 10 10 10 9 9 9 9 9 10 9 10 9 8 9 8 7 7 7 6 5 5 4 4 3 2 3 3 2 2 2
1 1 1 10 4 6 8 9 10 9 11 8 2 4 4 2 9 4 2 7 3 10 12 14 13 10 5 7 6 8 3 5 8 9 3 5 6 7 7 8 7 6 5 6 6 6 7 7 7 7 7 8 10 9 10 10 11 10 10 10 10 10 10 11 11 10 10 10 9 8 8 6 6 6 6 5 5 4 4 4 4 2 2 2 2 2
6 6 5 6 8 9 9 9 10 5 7 1 1 3 4 3 7 4 4 4 4 7 3 6 10 9 8 7 9 7 7 7 8 6 4 5 4 6 8 8 7 6 5 4 4 5 7 7 8 7 9 11 11 10 11 10 10 11 12 10 10 11 11 13 12 10 8 8 8 7 6 6 7 6 6 6 5 4 4 3 3 3 2 1 2 2
5 2 7 12 11 11 14 10 5 5 2 2 4 3 5 1 2 7 12 3 3 5 6 9 9 9 6 7 9 6 10 8 1 4 2 2 3 3 4 2 1 2 5 6 6 6 6 7 9 10 12 9 10 10 10 10 9 10 10 9 9 11 14 11 8 8 8 8 7 7 7 6 6 6 5 5 5 4 4 3 3 2 2 2 2 2
1 3 1 2 9 13 12 9 8 5 2 5 2 5 5 6 6 8 1 4 9 7 7 10 9 5 7 10 9 9 6 4 5 2 2 5 4 3 4 5 3 2 2 3 6 7 5 6 6 4 4 6 8 9 9 9 13 10 9 8 11 17 9 8 8 8 8 7 7 7 6 6 5 5 5 5 4 4 3 3 2 2 2 2 1 2
9 7 7 9 3 1 0 8 3 9 2 8 11 6 5 4 2 5 4 1 1 5 8 7 6 4 9 8 10 9 4 4 6 5 5 4 3 3 4 5 6 6 6 5 5 6 6 6 7 8 8 6 7 8 8 12 14 11 10 11 18 9 7 8 8 8 7 7 7 7 7 6 7 6 4 5 4 4 3 3 2 2 2 2 2 3
6 5 4 6 7 5 8 8 8 1 6 11 16 8 7 7 2 4 5 3 3 4 6 6 6 8 9 9 8 8 6 5 4 5 5 4 4 2 2 3 2 3 4 5 4 8 7 7 6 6 5 5 6 7 8 13 13 12 13 19 9 8 7 6 7 8 10 9 7 7 6 6 6 5 5 5 5 4 3 3 2 1 2 2 2 3
7 8 2 5 5 7 6 3 1 2 3 10 5 3 6 7 5 8 5 4 6 4 4 3 6 7 9 9 8 8 7 8 8 7 8 7 6 6 6 7 7 7 8 8 8 6 6 9 8 7 5 6 7 8 9 9 13 14 16 12 9 11 12 13 12 13 13 11 8 7 6 6 5 5 4 4 5 4 3 3 3 2 2 3 3 3
6 2 0 2 2 1 3 3 1 1 3 7 2 1 2 4 1 1 6 4 3 4 7 7 6 7 9 8 6 4 6 7 7 6 7 7 6 6 5 4 4 5 4 2 2 7 8 5 3 5 9 7 8 9 8 9 10 15 17 7 11 8 13 14 14 13 13 10 7 7 7 7 5 4 4 5 4 4 3 3 3 3 2 2 3 2
3 3 1 2 1 1 5 6 5 4 4 6 9 3 2 1 2 2 3 4 3 4 4 4 3 5 6 7 9 8 8 7 7 6 7 5 6 7 7 8 8 8 7 8 10 8 6 8 8 10 11 12 10 9 8 10 11 10 3 9 7 9 14 12 14 13 10 8 7 6 7 8 6 6 5 4 4 3 3 3 3 3 3 3 3 3
2 6 1 4 2 4 1 5 2 4 3 3 3 5 6 5 5 4 3 1 1 3 4 4 3 2 5 5 9 9 9 7 7 7 6 6 7 6 7 8 9 7 8 9 7 7 7 9 12 12 12 14 11 9 9 10 10 10 6 8 9 14 13 12 14 11 9 8 7 7 7 6 7 7 5 5 5 4 4 4 4 4 5 4 4 3
2 8 4 3 3 1 3 3 2 3 4 5 4 6 7 6 2 4 5 4 3 4 4 3 5 5 8 9 8 7 5 8 8 8 7 6 6 6 8 8 8 9 9 8 8 10 11 12 13 13 13 14 11 12 11 14 12 10 10 9 12 15 16 11 13 10 11 7 6 6 6 5 6 5 5 4 4 4 4 4 5 5 4 5 4 4
4 7 4 4 2 3 6 7 8 3 2 5 9 11 10 9 7 6 3 4 6 8 7 7 6 6 7 6 6 6 7 8 8 8 9 9 9 9 8 8 7 9 8 8 4 8 10 10 12 13 13 12 7 9 13 12 11 10 7 10 13 15 15 12 10 9 7 6 6 6 6 5 5 4 4 4 4 4 3 7 10 7 5 4 8 14
10 11 8 6 8 5 4 7 8 8 7 6 7 10 10 7 6 8 9 10 10 9 6 6 6 6 7 8 7 8 11 9 10 8 9 8 8 9 9 9 8 8 8 6 7 8 10 11 11 10 11 9 5 9 11 13 11 10 8 10 10 13 13 13 9 7 6 7 7 7 6 6 5 5 4 4 3 3 3 2 5 11 14 12 10 11
Wind_Direction
345 191 192 209 217 197 197 207 228 56 98 83 133 224 242 254 266 104 182 90 255 276 248 257 264 263 267 156 127 135 147 147 162 175 170 165 150 139 111 101 84 72 57 28 30 32 24 22 19 21 27 39 49 37 36 43 42 44 54 60 53 36 29 51 67 61 71 79 79 68 68 73 66 64 62 60 54 52 47 43 45 45 44 41 41 39
217 218 224 223 213 185 205 197 112 141 131 223 244 236 250 215 260 197 134 102 177 233 277 144 255 259 255 121 122 154 180 184 181 180 176 160 159 138 131 115 94 83 96 78 70 46 41 33 29 37 37 31 49 35 40 46 45 53 57 61 56 49 56 55 59 69 64 55 63 81 71 76 66 64 62 64 56 55 51 49 47 46 44 44 43 36
204 219 230 215 85 85 77 175 200 217 215 192 244 242 258 257 264 254 103 124 166 187 254 117 259 266 208 122 122 166 194 129 115 278 165 170 161 150 131 123 115 127 117 95 76 56 54 44 40 47 44 43 45 45 46 46 57 59 63 65 66 62 66 61 65 72 72 72 70 78 82 82 81 67 69 72 69 64 62 55 51 50 48 46 46 42
223 232 232 110 133 135 104 151 183 201 228 227 210 228 241 236 183 248 125 136 150 255 325 82 283 274 128 114 122 109 184 118 81 109 109 285 171 158 152 145 149 144 133 109 73 70 57 52 53 49 46 40 44 47 49 43 54 60 67 71 78 76 74 77 76 84 82 82 84 82 83 80 80 85 79 75 67 63 62 57 53 50 48 48 49 43
214 60 31 149 168 186 182 164 176 197 229 213 224 234 248 216 224 240 282 172 125 210 258 267 270 268 200 194 174 134 133 149 153 152 164 156 147 142 143 150 187 155 147 132 123 90 71 66 51 50 43 44 51 48 38 30 46 63 71 73 78 81 84 89 93 96 101 102 97 97 96 94 91 81 74 69 61 58 59 61 49 46 46 47 48 46
227 80 125 133 162 186 178 187 202 205 239 218 215 227 239 243 237 164 107 232 247 235 171 217 263 239 152 210 185 141 173 190 163 202 193 178 179 182 182 173 160 161 183 149 124 104 80 76 73 64 56 55 59 53 34 29 48 72 82 80 81 85 85 89 91 102 112 112 115 117 107 95 81 72 58 53 56 53 55 58 59 54 49 49 51 48
249 122 174 151 160 177 199 212 199 196 230 227 244 209 229 238 231 177 176 185 232 246 121 283 243 247 149 192 172 171 195 189 168 218 206 195 191 192 190 182 179 172 162 150 133 131 118 96 92 77 64 57 66 56 43 51 64 73 79 81 84 86 85 76 81 77 91 86 80 81 83 85 86 90 75 70 63 65 64 65 61 59 53 50 53 49
156 155 164 166 156 172 180 221 188 186 194 225 60 108 179 194 202 202 196 213 271 27 89 184 299 271 278 245 116 150 197 199 200 212 212 207 194 196 192 185 181 174 172 158 146 127 108 106 103 99 82 72 69 70 75 75 76 79 81 85 86 84 81 73 77 73 75 89 87 87 86 84 85 86 89 78 72 67 66 68 63 63 58 53 51 52
175 162 186 181 194 183 213 225 129 186 194 298 29 79 136 182 193 173 202 216 300 309 248 190 153 251 243 233 116 164 224 217 218 198 209 201 193 192 191 186 178 171 164 167 158 148 137 128 114 110 103 94 94 76 82 88 89 91 90 89 89 86 81 74 75 80 76 83 88 90 95 93 86 88 88 86 80 75 70 71 66 64 64 61 54 50
321 227 207 183 173 211 162 22 170 172 209 116 124 90 89 86 80 155 194 180 169 228 242 210 172 243 257 190 202 157 241 245 207 194 201 192 186 189 189 181 171 161 164 174 163 151 140 125 117 104 114 109 96 91 99 101 101 97 97 94 89 82 79 79 80 83 82 82 89 92 93 97 97 94 91 86 82 78 73 71 66 63 61 57 56 53
13 249 334 186 210 181 101 52 0 10 48 132 163 106 93 83 96 99 71 156 171 242 236 122 174 228 276 176 217 186 212 123 150 176 179 174 184 193 190 175 168 169 170 175 171 165 146 125 127 136 126 116 111 105 108 99 97 92 92 93 87 83 85 81 83 85 86 86 86 91 93 94 98 97 96 93 82 77 70 68 63 62 59 55 54 51
152 60 169 231 50 103 104 90 39 37 162 166 153 148 124 95 134 148 137 218 239 249 102 18 219 212 220 209 231 215 86 179 165 174 176 181 187 189 181 173 171 172 172 171 172 167 157 150 141 145 136 138 128 119 109 100 99 96 94 99 96 90 89 89 92 92 90 89 89 91 93 92 92 94 91 87 82 73 71 68 69 65 63 58 55 51
237 209 129 78 268 150 156 106 74 106 207 214 151 161 184 170 161 199 163 217 209 241 110 63 158 194 234 254 37 101 214 187 209 100 181 177 180 180 176 170 169 172 173 178 177 167 166 163 162 163 152 145 147 130 121 114 110 107 105 108 105 99 98 97 98 95 94 93 92 93 92 90 87 86 87 85 84 75 74 70 70 67 65 61 56 48
237 107 188 190 115 242 183 158 146 165 198 194 184 179 185 178 188 221 177 335 319 91 53 85 51 256 30 258 247 233 139 55 74 104 32 178 174 174 170 167 168 175 184 185 178 171 173 171 171 168 162 156 144 140 132 129 122 118 115 114 107 106 104 104 101 99 97 92 94 94 95 97 96 92 89 86 84 81 76 74 70 67 66 65 61 54
226 223 211 149 234 151 203 218 183 172 169 195 128 184 207 186 165 197 183 220 229 104 108 239 190 226 161 207 21 5 2 348 23 42 55 130 163 162 154 152 165 182 193 187 182 180 177 176 173 168 165 159 156 149 145 138 134 124 116 116 114 113 113 111 108 106 103 101 98 97 96 98 99 97 93 88 87 87 84 78 76 73 69 70 67 61
218 251 36 191 321 145 189 188 63 97 114 124 265 3 279 217 178 241 52 272 97 181 183 177 240 188 202 72 31 339 290 219 146 158 139 163 164 144 152 174 185 191 191 187 187 182 182 178 175 172 171 168 162 157 151 147 142 134 125 122 119 120 122 119 116 111 109 106 104 103 103 102 101 102 101 100 96 91 88 86 82 77 71 69 72 68
82 232 83 197 102 182 153 98 165 206 185 178 146 210 205 11 108 101 109 71 72 49 256 138 242 229 10 232 142 203 178 199 154 167 168 170 171 169 183 186 191 193 191 188 187 183 181 180 184 181 178 173 169 166 163 157 151 142 135 131 127 126 125 123 119 118 117 117 117 116 115 115 111 107 102 102 98 92 85 83 78 76 71 70 64 66
176 153 77 124 173 27 48 285 66 64 290 108 220 196 86 267 341 187 222 96 194 244 265 138 213 202 152 233 136 179 217 203 192 171 177 174 176 190 197 191 191 193 193 185 183 185 185 185 185 183 185 182 176 170 163 159 155 148 142 141 136 137 135 134 132 130 132 131 126 125 120 110 105 103 103 102 101 95 94 92 90 89 83 68 67 70
196 205 132 5 69 90 124 223 131 25 345 245 211 132 175 187 195 176 120 207 177 226 257 198 225 245 200 204 137 207 208 206 186 168 171 188 193 202 199 195 195 192 182 184 189 188 187 188 185 185 188 185 178 172 165 160 158 156 149 147 144 142 142 141 139 138 137 137 129 124 118 114 110 108 106 106 106 106 105 100 96 95 92 94 77 65
276 221 125 57 136 121 234 187 200 168 214 68 133 167 350 310 220 161 200 342 162 252 140 242 134 244 180 199 173 191 202 193 158 173 199 199 198 196 197 194 191 191 194 190 190 189 186 186 187 189 186 183 179 173 170 165 166 167 159 152 148 143 144 144 145 145 139 133 126 120 120 118 117 118 119 120 122 115 108 104 106 102 95 83 70 65
191 310 216 123 31 131 186 199 212 167 169 153 181 184 172 147 334 351 31 199 214 229 228 287 276 205 165 168 174 186 192 180 166 187 196 200 202 204 198 191 193 190 188 190 185 181 182 186 187 190 187 178 171 173 174 176 177 170 163 162 156 153 153 154 152 148 140 137 134 133 132 130 128 124 120 118 117 112 110 110 103 94 97 92 71 58
191 193 200 129 172 208 206 52 341 199 197 189 177 189 180 148 160 185 219 81 288 219 236 190 253 96 167 77 222 113 53 159 182 184 190 196 199 197 202 204 188 187 192 181 176 176 178 185 188 181 174 174 175 180 186 185 180 173 173 167 164 162 162 158 156 151 144 142 141 143 142 138 133 132 128 124 120 114 115 109 101 107 114 100 82 70
251 94 124 185 199 193 83 45 249 325 336 289 283 200 182 189 170 191 221 177 57 267 33 351 342 277 83 82 104 82 116 246 209 198 202 195 198 206 205 197 195 188 177 175 173 178 183 186 184 179 178 181 187 189 189 187 185 179 177 173 173 168 168 166 161 153 152 146 145 146 141 138 140 141 138 130 123 118 117 116 117 123 113 100 98 84
103 170 179 75 60 51 327 235 213 219 319 263 245 347 197 200 195 212 234 139 187 140 190 191 248 244 186 49 12 14 356 347 299 216 217 205 205 199 193 190 183 179 167 157 173 183 187 184 178 177 184 187 191 191 190 188 185 182 182 179 174 177 171 168 161 156 148 145 144 141 143 149 148 147 141 128 118 123 131 137 134 118 107 101 87 82
175 206 170 132 142 162 217 201 230 146 206 227 208 182 245 64 66 54 89 87 237 199 185 171 242 231 156 288 323 329 240 239 231 231 222 215 199 200 198 191 187 178 166 173 184 191 185 184 190 193 190 189 191 190 190 188 187 186 184 179 180 180 174 165 156 149 147 145 144 151 155 156 154 144 132 121 126 140 142 141 130 113 100 96 94 70
206 165 167 180 190 191 198 204 204 191 192 144 249 139 211 181 148 135 190 171 234 169 154 210 244 229 90 236 241 215 226 240 231 212 216 224 207 197 193 186 185 182 191 192 190 182 192 196 193 189 188 189 191 191 189 188 189 188 183 185 184 179 168 164 156 157 151 153 152 161 164 159 150 136 126 130 142 151 149 133 125 125 112 94 86 71
196 216 219 213 206 216 262 45 12 92 96 189 193 171 188 210 193 198 156 195 215 150 192 221 232 254 182 181 211 212 176 217 195 182 202 208 217 212 192 186 188 193 196 198 195 194 188 189 198 196 191 193 192 190 189 187 186 184 182 185 185 174 163 165 162 164 162 164 163 165 168 159 146 132 136 150 156 159 156 140 126 122 107 94 89 74
94 206 225 244 284 43 89 58 283 152 169 202 160 200 190 188 187 195 202 216 111 123 242 237 210 228 252 169 192 190 195 231 223 194 193 202 199 193 190 178 190 198 204 198 191 195 202 203 197 198 199 192 191 191 187 186 186 186 185 181 173 177 175 167 170 172 170 167 167 168 161 148 134 133 145 146 157 173 161 143 133 119 116 104 94 87
141 216 323 129 264 94 35 52 145 107 170 182 200 190 193 191 174 199 216 207 145 208 232 208 148 224 243 224 177 197 192 201 202 207 200 178 154 155 165 181 194 208 209 206 209 207 204 203 204 199 193 190 186 188 188 189 191 188 183 173 180 172 176 166 169 173 172 171 170 164 151 139 130 138 147 158 177 179 161 134 119 110 107 93 94 86
116 247 171 171 225 4 24 74 160 169 132 244 219 217 201 181 189 194 216 212 197 226 240 220 175 236 238 131 174 200 179 180 162 95 111 165 191 185 183 190 202 211 210 211 211 208 207 208 202 195 191 185 185 190 193 193 189 185 184 192 184 180 171 165 175 171 171 173 165 151 147 141 138 151 158 178 186 171 142 120 108 103 92 81 73 75
188 207 104 154 168 178 80 73 65 352 215 224 240 240 226 156 171 197 219 224 221 237 244 243 223 256 182 144 156 64 93 111 118 175 191 197 193 183 184 199 212 219 219 218 216 211 208 202 197 191 191 190 190 193 194 191 184 184 188 178 168 176 171 172 171 171 169 164 152 149 146 144 152 155 171 181 179 148 124 106 102 92 81 64 63 48
264 198 68 97 189 213 133 135 96 74 12 261 254 244 174 147 190 218 220 220 195 222 235 246 250 251 161 151 140 132 156 184 207 197 191 207 203 184 196 210 218 223 223 217 216 213 205 200 197 195 195 196 197 194 188 186 185 186 193 177 177 175 167 174 170 165 161 151 151 151 150 149 151 160 170 179 173 140 114 106 102 95 83 41 54 34
180 145 146 161 179 210 42 145 138 126 190 257 243 232 178 185 214 216 232 222 210 205 219 224 230 235 144 156 177 197 195 215 218 206 212 210 197 198 206 213 219 222 218 216 213 207 203 201 201 198 196 193 195 198 191 190 184 189 186 175 175 153 168 171 165 159 155 152 153 154 152 152 155 161 176 182 155 133 127 119 125 132 150 241 2 307
121 156 153 172 208 124 358 133 165 169 224 228 43 111 195 203 206 214 224 214 211 197 217 227 251 233 131 157 193 201 198 211 214 214 205 212 200 202 221 223 224 224 223 217 211 207 207 205 203 201 199 195 191 194 195 195 180 183 167 154 150 161 167 163 162 157 152 151 154 154 155 157 155 167 177 169 152 142 140 138 159 149 206 203 238 234
169 187 192 150 175 152 172 143 176 216 232 265 37 11 8 193 191 216 232 229 214 212 225 243 245 238 221 183 196 207 207 191 35 233 212 213 214 210 203 211 215 218 216 209 212 212 208 204 204 207 207 204 193 181 140 164 167 149 148 154 159 167 160 167 158 153 155 159 158 157 160 160 165 169 168 164 153 150 152 160 165 191 210 209 225 223
187 185 162 159 125 68 108 185 215 229 2 305 206 87 296 97 161 115 265 249 213 184 197 218 225 222 191 203 217 149 68 88 281 252 229 217 201 192 202 215 214 201 203 208 205 210 203 200 200 200 203 188 176 179 179 184 169 159 163 161 161 164 165 156 154 157 162 164 166 169 168 164 166 167 166 162 159 163 171 171 189 201 205 211 228 220
181 143 191 196 171 185 188 203 227 348 316 280 248 204 170 170 164 186 242 241 190 182 197 208 228 216 206 220 140 100 111 134 268 257 192 205 197 207 209 213 199 197 203 211 207 221 206 198 200 198 166 172 183 178 184 165 153 151 145 159 164 155 159 161 166 173 172 168 170 172 169 170 165 164 163 163 165 171 179 183 197 205 197 212 223 222
222 195 187 201 214 192 190 230 246 240 250 257 232 90 181 181 162 177 214 265 106 189 189 200 222 222 222 137 119 131 117 268 272 264 170 188 195 208 226 333 75 178 188 182 167 193 199 211 195 182 180 180 179 176 161 148 154 151 154 160 160 161 169 174 183 178 174 177 171 169 168 168 162 159 164 164 174 170 182 180 197 197 206 215 219 236
301 354 275 211 220 179 204 212 225 226 233 254 296 158 142 159 125 111 97 261 175 180 194 189 209 222 209 156 152 150 168 223 243 254 115 168 192 205 204 217 220 215 186 175 176 178 180 182 186 177 172 172 175 172 153 152 150 152 163 164 166 172 171 189 188 178 178 177 167 164 159 157 157 161 162 166 168 169 176 186 195 191 192 215 231 242
192 205 184 227 221 221 212 217 223 209 257 342 202 151 177 144 149 107 251 267 152 210 175 176 205 218 212 169 154 173 183 221 239 256 112 183 170 186 194 204 207 208 197 170 184 181 164 149 140 159 173 180 179 158 154 154 159 169 167 172 169 176 191 196 190 173 163 151 150 152 153 154 155 160 159 160 155 162 180 175 180 193 205 214 246 248
179 199 206 213 221 223 225 238 257 263 247 205 175 140 131 186 153 184 234 147 184 178 195 189 201 207 175 150 165 181 222 217 250 62 73 98 127 188 220 215 173 170 173 173 174 153 157 170 176 178 183 181 158 154 159 156 156 171 180 166 175 195 203 189 150 151 154 148 150 151 151 154 159 155 152 154 157 163 168 184 184 174 190 226 241 253
220 157 297 232 229 225 226 242 240 272 198 143 59 137 178 134 201 219 181 110 160 197 196 193 200 199 152 175 186 211 213 108 98 90 141 197 197 176 160 168 160 142 95 117 147 163 165 177 189 177 161 167 153 156 160 161 171 182 164 173 198 208 187 136 148 150 148 153 154 147 144 147 148 145 142 142 149 158 173 173 163 180 198 236 250 269
175 156 193 200 211 253 201 246 233 238 175 121 117 69 282 181 251 99 126 27 136 177 161 206 209 186 176 200 208 214 129 144 178 187 194 195 201 179 170 175 188 185 171 153 168 196 174 174 191 200 188 157 155 166 169 171 180 183 179 189 210 185 136 152 148 156 154 148 144 145 145 149 148 148 146 148 157 159 167 165 161 186 201 223 252 249
182 139 211 224 191 169 200 207 218 264 131 168 146 183 192 203 125 155 132 162 174 176 172 182 208 204 197 201 203 217 206 174 195 216 211 206 221 215 212 222 221 189 185 206 196 178 177 192 195 191 168 155 167 175 176 179 185 187 186 210 196 123 135 142 155 146 145 144 145 143 153 146 142 143 152 153 154 160 163 167 154 197 220 212 241 258
208 193 197 202 188 174 208 219 53 316 153 188 181 4 171 168 135 187 150 140 147 214 175 186 210 193 199 207 212 202 198 205 211 196 198 211 202 201 209 212 204 202 197 195 200 180 182 195 194 185 167 176 182 191 192 197 188 187 200 210 138 160 159 151 150 157 154 156 151 154 148 147 154 154 152 151 157 163 168 166 170 209 204 199 230 239
8 98 356 86 260 289 316 143 38 25 227 203 195 9 7 135 145 252 138 137 211 169 166 188 198 183 195 202 198 217 213 209 201 200 208 225 220 221 220 226 233 239 242 224 174 179 199 203 176 179 195 193 191 198 201 207 201 194 212 148 160 158 140 151 158 164 167 151 157 156 144 144 145 147 149 156 165 171 176 167 181 204 209 213 226 226
202 126 144 197 269 138 239 100 162 180 200 207 206 223 245 261 192 175 185 211 167 160 193 225 199 177 181 173 199 213 216 204 205 209 203 209 215 218 212 214 220 208 202 201 213 182 171 179 191 204 202 208 199 199 205 207 217 220 143 159 151 146 151 160 159 157 144 163 156 151 158 161 167 163 159 168 167 172 177 183 191 199 216 213 212 222
263 168 125 228 213 196 275 157 215 1 275 277 241 236 251 231 193 201 235 29 103 176 193 203 141 146 145 183 209 212 232 215 204 223 211 209 211 210 212 219 221 213 214 215 208 184 190 191 204 210 209 216 202 194 196 203 212 210 166 149 143 141 150 161 173 168 168 160 160 162 169 168 157 160 162 169 171 177 182 191 199 204 211 202 204 212
109 125 214 190 175 146 32 290 270 330 286 237 214 239 248 248 204 202 204 206 193 199 210 192 208 186 182 208 194 202 229 240 212 218 221 225 220 222 223 222 222 219 213 203 208 188 197 200 209 215 211 222 201 183 184 208 214 197 174 170 154 157 158 170 170 162 147 159 159 162 164 167 160 173 162 156 173 200 202 192 193 205 218 216 210 220
130 223 151 110 167 210 206 184 160 150 228 213 221 223 222 227 210 222 180 200 211 219 209 196 210 217 221 225 192 190 209 233 223 209 222 227 221 221 226 230 232 229 229 217 190 202 218 219 216 218 219 228 193 186 200 209 196 178 180 165 160 162 174 176 155 160 170 170 173 156 160 165 163 157 162 164 178 183 225 230 225 217 204 220 227 233
195 209 146 198 203 233 172 154 184 203 220 214 195 210 221 217 182 210 221 223 223 218 197 190 215 216 227 235 215 199 213 223 230 205 220 233 231 224 222 222 228 234 233 195 198 209 215 223 223 229 233 230 186 200 206 208 187 179 179 174 172 180 181 161 160 170 165 169 185 169 159 156 159 165 168 171 173 189 211 234 223 229 235 241 247 252